STARLINK-1572, 46060

Orbit data source: Space-Track

STARLINK-1572, 46060 is a payload satellite owned by SpaceX/Seattle (US) in LEO that was launched on Fri, 07 Aug 2020 UTC via an FALCON 9 launch vehicle from the Air Force Eastern Test Range (AFETR). Payloads include a variety of satellites, spacecraft, and rockets equipped with specific instruments for various scientific and technological missions. These include communications satellites like Starlink; space stations such as the ISS; scientific satellites like the Hubble; Earth observation satellites from companies like Planet Labs, Umbra, and HawkEye 360; GPS; miniature CubeSats for education and research; and military/defense satellites.

Loading next visibility...
STARLINK-1572 details
Identifier
46060, 2020-055AK
Orbit
LEO
Last TLE update8 hours ago
Origin
Flag of USSpaceX/Seattle (US)
ManufacturerSpaceX/Seattle
MissionOperational Commercial Communications
Bus & MotorSTARLINK, Unknown motor
Mass260 kg wet, ~248 kg dry
Launch date (UTC)
2020-08-07 (4 years ago)
Launch vehicle
FALCON 9
Launch site
Air Force Eastern Test Range (AFETR)
Object type
Payload
Rocket body
Debris
Shape & HBRBox + 1 Pan, 8.86 m
Radar Cross Section13.562 m², Large (>1 m²)

Expand to show TLE details & history

TLE from 8 hours ago
0 STARLINK-1572
1 46060U 20055AK  24361.09935553  .00026427  00000-0  17845-2 0  9991
2 46060  53.0544 285.5262 0001295  91.8673 268.2464 15.06439610242397
Epoch: 2024-12-26T02:23Z
Definitive object data (Epoch: 2024-12-26T02:23:04.317Z)
Latitude-0.00006°
Longitude154.67455°
Altitude547.997 km
Speed7.589 km/s
True Right ascension19h 02m 06s
True Declination0° 00' 00"
Sunlit
Object was in daylight at TLE epoch
Visualization TLE readout
Latitude49.07935°
Longitude-86.54078°
Altitude551.783 km
Speed7.592 km/s
Apparent Right ascension00h 27m 58s
Apparent Declination8° 28' 35"
Sunlit
Object is in full shadow
Visualization observer readout
Local Sidereal Time10:10:59
Azimuth318.885° NNW
Elevation-32.175°
Doppler factor1
Orbital elements
Apogee altitude548.258 km
Perigee altitude546.464 km
Semi-major axis6,925.498 km
Eccentricity0.0001295
Inclination53.0544°
RAAN285.5262°
Arg. of periapsis91.8673°
True anomaly268.23157°
Mean anomaly268.2464°
Eccentric anomaly268.23898°
Mean motion3.76588 °/min
BSTAR0.0017845
Orbital period95.6 mins
Loading maneuver chart data...
Loading historical data...
Loading historical data...
Loading historical data...
Loading historical data...
Loading historical data...
Loading historical data...
Loading historical data...

STARLINK-1572 Visibility forecast

Observer location: undefined°, undefined

Span
Click to sort rows by Start time (UTC) header in descending order
Start Az.
Max El. time (UTC)
Max El. Az.
Max El.
End time (UTC)
End Az.
7 mins2024-12-26 21:39:44.845Z216.263° SW2024-12-26 21:42:44.845Z158.041° S41.745°2024-12-26 21:46:44.845Z56.032° ENE
5 mins2024-12-26 23:20:44.845Z293.301° NW2024-12-26 23:22:44.845Z334.299° NNW22.944°2024-12-26 23:25:44.845Z27.773° NE
4 mins2024-12-27 02:42:44.845Z349.813° N2024-12-27 02:44:44.845Z26.101° NE17.006°2024-12-27 02:46:44.845Z57.628° ENE
6 mins2024-12-27 04:21:44.845Z318.853° NNW2024-12-27 04:24:44.845Z62° ENE41.507°2024-12-27 04:27:44.845Z117.679° SE
|